Fort Meade, MD

10:52 AM EDT on April 22, 2018 (GMT -0400)
Tipton

Weather History for KFME - February, 2013

Change the Weather History Date:

Friday, February 15, 2013

  Actual Average (KBWI) Record (KBWI)
Temperature  
Mean Temperature 42 °F -  
Max Temperature 59 °F 45 °F 77 °F (1949)
Min Temperature 26 °F 28 °F 6 °F (1943)
Degree Days  
Heating Degree Days 22    
Moisture  
Dew Point 30 °F    
Average Humidity 72    
Maximum Humidity 100    
Minimum Humidity 27    
Precipitation  
Precipitation 0.00 in - - ()
Sea Level Pressure  
Sea Level Pressure 30.01 in    
Wind  
Wind Speed 2 mph (West)    
Max Wind Speed 17 mph    
Max Gust Speed 26 mph    
Visibility 8 miles    
Events      
Averages and records for this station are not official NWS values.
T = Trace of Precipitation, MM = Missing Value Source: NWS Daily Summary

Daily Weather History Graph

Daily Weather History Graph

Search for Another Location

Airport or City:

Astronomy

Feb. 15, 2013 Rise Set
Actual Time 6:58 AM EST 5:44 PM EST
Civil Twilight 6:30 AM EST 6:11 PM EST
Nautical Twilight 5:59 AM EST 6:43 PM EST
Astronomical Twilight 5:28 AM EST 7:14 PM EST
Moon 9:36 AM EST (2/15) 11:40 PM EST (2/15)
Length of Visible Light 11h 41m
Length of Day
10h 46m
Waxing Crescent, 30% of the Moon is Illuminated
Feb 15
Waxing Crescent
Feb 17
First Quarter
Feb 25
Full
Mar 4
Last Quarter
Mar 11
New

Hourly Weather History & Observations

Time (EST) Temp. Windchill Dew Point Humidity Pressure Visibility Wind Dir Wind Speed Gust Speed Precip Events Conditions
12:09 AM 28.4 °F - 26.6 °F 93% 30.04 in 5.0 mi Calm Calm - N/A   Clear
12:30 AM 28.4 °F - 26.6 °F 93% 30.03 in 5.0 mi Calm Calm - N/A   Clear
12:48 AM 28.4 °F - 26.6 °F 93% 30.03 in 5.0 mi Calm Calm - N/A   Clear
1:09 AM 28.4 °F - 26.6 °F 93% 30.03 in 5.0 mi Calm Calm - N/A   Clear
1:30 AM 28.4 °F - 26.6 °F 93% 30.03 in 5.0 mi Calm Calm - N/A   Clear
1:48 AM 28.4 °F - 26.6 °F 93% 30.02 in 4.0 mi Calm Calm - N/A   Clear
2:09 AM 28.4 °F - 26.6 °F 93% 30.03 in 5.0 mi Calm Calm - N/A   Clear
2:30 AM 28.4 °F - 26.6 °F 93% 30.02 in 5.0 mi Calm Calm - N/A   Clear
2:48 AM 28.4 °F - 26.6 °F 93% 30.02 in 5.0 mi Calm Calm - N/A   Clear
3:09 AM 26.6 °F - 26.6 °F 100% 30.02 in 5.0 mi Calm Calm - N/A   Scattered Clouds
3:30 AM 28.4 °F - 26.6 °F 93% 30.03 in 5.0 mi Calm Calm - N/A   Mostly Cloudy
3:51 AM 28.4 °F - 28.4 °F 100% 30.02 in 7.0 mi Calm Calm - N/A   Overcast
4:09 AM 30.2 °F - 28.4 °F 93% 30.02 in 7.0 mi Calm Calm - N/A   Overcast
4:30 AM 28.4 °F - 28.4 °F 100% 30.02 in 5.0 mi Calm Calm - N/A   Scattered Clouds
4:51 AM 28.4 °F - 26.6 °F 93% 30.02 in 5.0 mi Calm Calm - N/A   Clear
5:09 AM 28.4 °F - 26.6 °F 93% 30.02 in 5.0 mi Calm Calm - N/A   Clear
5:30 AM 28.4 °F - 26.6 °F 93% 30.03 in 5.0 mi Calm Calm - N/A   Clear
5:51 AM 28.4 °F - 26.6 °F 93% 30.03 in 5.0 mi Calm Calm - N/A   Scattered Clouds
6:09 AM 28.4 °F - 26.6 °F 93% 30.03 in 5.0 mi Calm Calm - N/A   Scattered Clouds
6:30 AM 28.4 °F - 26.6 °F 93% 30.04 in 5.0 mi Calm Calm - N/A   Mostly Cloudy
6:51 AM 28.4 °F - 26.6 °F 93% 30.04 in 5.0 mi Calm Calm - N/A   Mostly Cloudy
7:09 AM 28.4 °F - 26.6 °F 93% 30.04 in 5.0 mi Calm Calm - N/A   Mostly Cloudy
7:30 AM 28.4 °F - 26.6 °F 93% 30.04 in 4.0 mi Calm Calm - N/A   Scattered Clouds
7:51 AM 28.4 °F - 28.4 °F 100% 30.04 in 4.0 mi Calm Calm - N/A   Clear
8:09 AM 30.2 °F - 30.2 °F 100% 30.05 in 5.0 mi Calm Calm - N/A   Clear
8:30 AM 32.0 °F - 32.0 °F 100% 30.06 in 5.0 mi Calm Calm - N/A   Clear
8:51 AM 33.8 °F - 33.8 °F 100% 30.05 in 10.0 mi Calm Calm - N/A   Clear
9:09 AM 37.4 °F - 33.8 °F 87% 30.05 in 10.0 mi Calm Calm - N/A   Clear
9:30 AM 42.8 °F 41.1 °F 33.8 °F 70% 30.06 in 10.0 mi SW 3.5 mph - N/A   Clear
9:51 AM 44.6 °F 43.1 °F 33.8 °F 66% 30.06 in 10.0 mi WNW 3.5 mph - N/A   Clear
10:09 AM 46.4 °F - 33.8 °F 62% 30.06 in 10.0 mi Calm Calm - N/A   Clear
10:30 AM 48.2 °F - 32.0 °F 54% 30.06 in 10.0 mi Calm Calm - N/A   Clear
10:51 AM 51.8 °F - 32.0 °F 47% 30.05 in 10.0 mi Calm Calm - N/A   Clear
11:09 AM 53.6 °F - 32.0 °F 44% 30.03 in 10.0 mi Calm Calm - N/A   Clear
11:30 AM 53.6 °F - 32.0 °F 44% 30.03 in 10.0 mi SSW 3.5 mph - N/A   Clear
11:51 AM 55.4 °F - 32.0 °F 41% 30.02 in 10.0 mi South 4.6 mph - N/A   Clear
12:12 PM 55.4 °F - 30.2 °F 38% 30.00 in 10.0 mi SW 6.9 mph - N/A   Clear
12:51 PM 57.2 °F - 28.4 °F 33% 29.98 in 10.0 mi Calm Calm - N/A   Clear
1:12 PM 57.2 °F - 26.6 °F 31% 29.97 in 10.0 mi WSW 4.6 mph - N/A   Clear
1:30 PM 59.0 °F - 26.6 °F 29% 29.96 in 10.0 mi SSW 8.1 mph - N/A   Clear
1:51 PM 57.2 °F - 26.6 °F 31% 29.95 in 10.0 mi South 3.5 mph - N/A   Clear
2:12 PM 59.0 °F - 26.6 °F 29% 29.95 in 10.0 mi SSW 10.4 mph - N/A   Clear
2:30 PM 59.0 °F - 26.6 °F 29% 29.95 in 10.0 mi SSW 10.4 mph 16.1 mph N/A   Clear
2:51 PM 59.0 °F - 26.6 °F 29% 29.94 in 10.0 mi SW 4.6 mph - N/A   Clear
3:12 PM 59.0 °F - 26.6 °F 29% 29.94 in 10.0 mi WSW 5.8 mph - N/A   Clear
3:30 PM 59.0 °F - 24.8 °F 27% 29.94 in 10.0 mi WSW 3.5 mph - N/A   Clear
3:51 PM 59.0 °F - 26.6 °F 29% 29.93 in 10.0 mi WSW 5.8 mph - N/A   Scattered Clouds
4:12 PM 59.0 °F - 26.6 °F 29% 29.92 in 10.0 mi SW 8.1 mph - N/A   Scattered Clouds
4:30 PM 55.4 °F - 26.6 °F 33% 29.92 in 10.0 mi SW 5.8 mph - N/A   Clear
4:51 PM 55.4 °F - 30.2 °F 38% 29.92 in 10.0 mi SE 8.1 mph - N/A   Mostly Cloudy
5:12 PM 53.6 °F - 32.0 °F 44% 29.92 in 10.0 mi ESE 6.9 mph - N/A   Mostly Cloudy
5:30 PM 51.8 °F - 32.0 °F 47% 29.92 in 10.0 mi ESE 5.8 mph - N/A   Overcast
5:51 PM 51.8 °F - 32.0 °F 47% 29.93 in 10.0 mi Calm Calm - N/A   Overcast
6:12 PM 50.0 °F - 32.0 °F 50% 29.95 in 10.0 mi NW 17.3 mph 26.5 mph N/A   Overcast
6:30 PM 44.6 °F 38.1 °F 33.8 °F 66% 29.96 in 10.0 mi NW 13.8 mph 24.2 mph N/A   Overcast
6:51 PM 44.6 °F 38.4 °F 33.8 °F 66% 29.95 in 10.0 mi NNW 12.7 mph 17.3 mph N/A   Mostly Cloudy
7:12 PM 42.8 °F 38.0 °F 33.8 °F 70% 29.96 in 10.0 mi North 8.1 mph 18.4 mph N/A   Scattered Clouds
7:30 PM 42.8 °F 39.3 °F 33.8 °F 70% 29.98 in 10.0 mi NNW 5.8 mph - N/A   Mostly Cloudy
7:51 PM 42.8 °F 37.5 °F 33.8 °F 70% 29.99 in 10.0 mi NW 9.2 mph 18.4 mph N/A   Scattered Clouds
8:12 PM 41.0 °F 34.7 °F 33.8 °F 76% 30.01 in 10.0 mi NW 10.4 mph 20.7 mph N/A   Scattered Clouds
8:33 PM 41.0 °F 33.9 °F 33.8 °F 76% 30.02 in 10.0 mi NW 12.7 mph 20.7 mph N/A   Overcast
8:51 PM 41.0 °F 35.2 °F 33.8 °F 76% 30.03 in 10.0 mi NW 9.2 mph 24.2 mph N/A   Overcast
9:12 PM 37.4 °F 30.3 °F 33.8 °F 87% 30.04 in 10.0 mi NNW 10.4 mph 18.4 mph N/A   Overcast
9:33 PM 37.4 °F 32.8 °F 33.8 °F 87% 30.04 in 10.0 mi NNW 5.8 mph - N/A   Scattered Clouds
9:51 PM 35.6 °F 29.9 °F 33.8 °F 93% 30.05 in 10.0 mi NNW 6.9 mph - N/A   Mostly Cloudy
10:12 PM 35.6 °F 32.8 °F 33.8 °F 93% 30.06 in 5.0 mi NNW 3.5 mph - N/A   Scattered Clouds
10:33 PM 35.6 °F 31.7 °F 33.8 °F 93% 30.05 in 5.0 mi NNW 4.6 mph - N/A   Scattered Clouds
10:51 PM 35.6 °F - 33.8 °F 93% 30.05 in 5.0 mi Calm Calm - N/A   Scattered Clouds
11:12 PM 35.6 °F - 32.0 °F 87% 30.05 in 10.0 mi Calm Calm - N/A   Scattered Clouds
11:33 PM 35.6 °F - 32.0 °F 87% 30.04 in 10.0 mi Calm Calm - N/A   Mostly Cloudy
11:51 PM 33.8 °F - 32.0 °F 93% 30.05 in 7.0 mi Calm Calm - N/A   Scattered Clouds